SEBI

Registration No.

INH000000305

Ip Address Lookup

So far visitors:

customizable counter

TRIAL

TRIAL

SEND SMS FOR TRIAL

EQUITY - COMMODITY OR BOTH

TO

 09920033678

AND GET TRIAL

 


Information: COPPER (MCX): LOT SIZE CHANGED TO 2500 from 1000 (from JUL CONTRACT)

SEBI Registration No.: INH000000305 *****

* Commodity: 9500/month * Equity: 6000/month


* Gold Package: 7000 * Gold-Silver Package: 8100
*Crude-NG-Copper-Nickel Package: 6000


To See Past Performance, Click Here

For Registration,

click here

Past Performance >> Equity Tips
 
Search
 
Entry Start Date Entry End Date
Exit Start Date Exit End Date
Scrip Name Contract
Package
 

Packages: Precious Metals - Energy and Base Metals - Profit is calculated on basis of 1 lot per call

Package: Equity calls: Profit is calculated as follows:

1. If the scrip is in F & O then 1 lot is counted otherwise

2. Trade of Rs.1,50,000/- per call is counted.

 
Page: ( 1 2 3 4 5 6 7 8 9 10 11 12 13 14 15 16 17 18 19 20 21 22 23 24 25 26 27 28 29 30 31 32 33 34 35 36 37 38 39 40 41 42 43 44 45 46 47 48 49 50 51 52 53 54 55 56 57 58 59 60 61 62 63 64 65 66 67 68 69 70 71 72 73 74 75 76 77 78 79 80 81 82 83 84 85 86 87 88 89 90 91 92 93 94 95 96 97 98 99 100 101 102 103 104 105 106 107 108 109 110 111 112 113 114 115 116 117 118 119 120 ) [Current Page: 113]
Displaying 8401 to 8475   Calls
Entry Date Type Scrip Entry Price (Rs) T1
(Rs)
T2
(Rs)
T3
(Rs)
Stop Loss
(Rs)
Exit Date Exit Rate
(Rs)
Profit
(Rs)
 
23-03-11 Buy Amtek Auto 140 144 154 160 132 25-03-11 154 10080.00 More
23-03-11 Buy BANK NIFTY 10785 10850 10900 11000 10700 23-03-11 10922 3425.00 More
22-03-11 Buy Hind Oil Exploration 178.70 183 185 190 173 23-03-11 189 10300.00 More
21-03-11 Sell TCS 1085 1075 1065 1055 1100 21-03-11 1074 2750.00 More
18-03-11 Buy BANK NIFTY 10865 10900 10925 10975 10800 18-03-11 10800 -1625.00 More
18-03-11 Buy Great Offshore 244 255 260 262 237 18-03-11 247 3000.00 More
17-03-11 Buy RELIANCE CAPITAL 588 600 615 --- 577 18-03-11 593 2500.00 More
17-03-11 Buy YES BANK 280 285 290 295 274 18-03-11 274 -6000.00 More
17-03-11 Buy Orchid Chem 290.60 294 298 315 287.70 17-03-11 287.70 -5800.00 More
17-03-11 Buy VOLTAS 157 160 163 169 155 17-03-11 163 6000.00 More
15-03-11 Buy MRPL 63.30 67 69 --- 60 18-03-11 60 -13200.00 More
15-03-11 Buy HERO MOTOR 1518 1535 1560 --- 1500 15-03-11 1538 2500.00 More
15-03-11 Buy BAJAJ AUTO 1369 1390 1410 --- 1353 16-03-11 1386.40 4350.00 More
14-03-11 Sell Andhra Bank 135.50 131 129 127 139 14-03-11 135.50 0.00 More
11-03-11 Buy Hanung Toys 206 216 230 235 197 11-03-11 200 -2940.00 More
11-03-11 Buy HCC 35.90 37 39 41 34 25-03-11 37.30 5600.00 More
10-03-11 Buy RELIANCE CAPITAL 519 545 575 --- 499 15-03-11 575 28000.00 More
10-03-11 Buy BGR Energy 460 470 480 490 448 11-03-11 448 -3000.00 More
09-03-11 Buy RELIANCE 983 993 1005 1010 973 09-03-11 1000 4250.00 More
09-03-11 Buy Bajaj Holdings 756.50 775 800 --- 745 11-03-11 745 -2875.00 More
09-03-11 Sell NIFTY 5486 5465 5445 --- 5502 09-03-11 5502 -800.00 More
09-03-11 Buy VIP Industries 547 565 580 --- 530 09-03-11 559.85 2313.00 More
09-03-11 Buy Essar Oil 116 120 125 130 111 16-03-11 124.30 16600.00 More
09-03-11 Buy Apollo Tyres 62.70 65 67 69 59 15-03-11 69 25200.00 More
09-03-11 Buy HCL TECH 468 480 490 --- 460 09-03-11 460 -4000.00 More
09-03-11 Buy Rolta 149.60 155 160 --- 145 10-03-11 145 -9200.00 More
08-03-11 Buy Walchandnagar 151 157 170 180 144 08-03-11 158.45 5513.00 More
07-03-11 Buy Walchandnagar 134.80 140 144 148 129 07-03-11 150 11248.00 More
07-03-11 Buy ZEEL 126 129 132 136 122 11-03-11 122 -8000.00 More
04-03-11 Buy Jaiprakash 85.50 88 90 --- 83.50 04-03-11 85.50 0.00 More
04-03-11 Buy CANARA BANK 613 622 630 635 606 04-03-11 613 0.00 More
04-03-11 Buy TCS 1157 1165 1175 1180 1145 04-03-11 1145 -3000.00 More
04-03-11 Buy HDFC 682.50 690 700 710 673 04-03-11 681 -750.00 More
03-03-11 Buy Bajaj Holdings 790 850 900 --- 780 07-03-11 780 -2500.00 More
03-03-11 Buy Nagarjuna Construction 105 108 110 --- 102 04-03-11 108 2850.00 More
03-03-11 Buy DR REDDY 1562 1585 1600 --- 1548 04-03-11 1600 9500.00 More
03-03-11 Buy NIFTY 5505 5525 5550 5575 5475 03-03-11 5587 4100.00 More
03-03-11 Buy AXIS BANK 1285 1310 1330 1350 1270 03-03-11 1270 -3750.00 More
03-03-11 Buy Delta Corp 66.50 72 78 80 63 10-03-11 73.50 10500.00 More
01-03-11 Buy SAIL 154.70 160 165 172 152.70 01-03-11 159.50 4800.00 More
01-03-11 Buy LICHSGFIN 192 200 205 --- 188 10-03-11 203.90 14875.00 More
01-03-11 Buy CANARA BANK 622 630 640 650 606 03-03-11 632 5000.00 More
25-02-11 Buy HERO MOTOR 1500 1600 1700 1800 1425 04-03-11 1555 6875.00 More
25-02-11 Sell ICICI BANK 984 970 960 940 1010 25-02-11 973.25 2687.50 More
24-02-11 Sell ICICI BANK 1000 990 980 970 1020 24-02-11 963 9250.00 More
24-02-11 Sell Below Tata Power 1200 1180 1165 1150 1220 24-02-11 1168.45 7887.50 More
23-02-11 Buy 335.80 338 341 343 330 23-02-11 330 -5800.00 More
22-02-11 Buy Essar Oil 109 112 115 118 107 22-02-11 107 -4000.00 More
22-02-11 Buy CHAMBAL 75 78 80 82 73 22-02-11 76.20 4800.00 More
22-02-11 Buy HINDALCO 210 215 218 220 207 22-02-11 214.30 8600.00 More
22-02-11 Sell Educomp 500 490 480 --- 520 22-02-11 480 10000.00 More
22-02-11 Buy BATA 348 355 360 --- 345 22-02-11 345 -3000.00 More
21-02-11 Buy 1635 1645 1650 --- 1610 21-02-11 1660 3125.00 More
21-02-11 Sell NIFTY 5452 5432 5412 --- 5480 21-02-11 5480 -1400.00 More
21-02-11 Sell Ranbaxy 507 500 492 --- 516 21-02-11 500.50 3250.00 More
21-02-11 Buy RAYMOND 293 300 310 320 290 21-02-11 290 -1050.00 More
21-02-11 Sell BANK NIFTY 10865 10825 10775 10725 11000 21-02-11 10785 2000.00 More
21-02-11 Sell Renuka 79 74 72 70 84 21-02-11 79.50 -2000.00 More
18-02-11 Buy NIFTY 5542 5560 5580 5600 5519 18-02-11 5519 -1150.00 More
18-02-11 Buy TCS 1120 1130 1140 1155 1106 18-02-11 1131 5500.00 More
18-02-11 Buy BANK NIFTY 11064 11100 11150 11200 10970 18-02-11 11125 1525.00 More
18-02-11 Buy TATA STEEL 660 667 675 680 650 18-02-11 650 -5000.00 More
18-02-11 Buy HDFC 657 670 675 680 647 18-02-11 663.50 3250.00 More
18-02-11 Sell HCL TECH 463 455 450 440 471 18-02-11 457 6000.00 More
18-02-11 Buy SBI 2790 2810 2830 2850 2770 18-02-11 2812 2750.00 More
18-02-11 Buy Indian Bank 222 227 229 232 215 18-02-11 226.50 4500.00 More
18-02-11 Buy LICHSGFIN 203 209 215 218 190 18-02-11 205.45 3062.50 More
18-02-11 Buy 340 350 355 --- 330 18-02-11 336 -4000.00 More
17-02-11 Buy HINDALCO 213.10 217 221 229 208 17-02-11 211.80 -2600.00 More
17-02-11 Buy Above BANK NIFTY 11050 11150 11250 11350 10970 17-02-11 11174 3100.00 More
17-02-11 Buy Sintex 154 159 165 172 149 18-02-11 160.20 12400.00 More
17-02-11 Buy NIFTY 5472.50 5490 5510 5525 5440 17-02-11 5520 2375.00 More
17-02-11 Buy Above AMBUJA CEMENT 123 127 130 133 121 18-02-11 129.45 12900.00 More
17-02-11 Buy BOMDYEING 362.50 370 373 375 355 17-02-11 370 3750.00 More
17-02-11 Buy ADANI ENT 628.50 640 650 660 619 17-02-11 633.75 2625.00 More
Page wise profit 220026.50 Rs
Profit 30174978.50 Rs
TRIAL

TRIAL

SEND SMS FOR TRIAL

EQUITY - COMMODITY OR BOTH

TO

 09920033678

AND GET TRIAL